Printer-friendly version

IAU Minor Planet Center

Minor Planet Center

MPEC 2006-U77 : 2006 UZ215

The following Minor Planet Electronic Circular may be linked-to from your own Web pages, but must not otherwise be redistributed electronically.


Read MPEC 2006-U76 Read MPEC 2006-U78


M.P.E.C. 2006-U77                                Issued 2006 Oct. 30, 15:20 UT

     The Minor Planet Electronic Circulars contain information on unusual
         minor planets and routine data on comets.  They are published
   on behalf of Commission 20 of the International Astronomical Union by the
          Minor Planet Center, Smithsonian Astrophysical Observatory,
                          Cambridge, MA 02138, U.S.A.

             Prepared using the Tamkin Foundation Computer Network

                              MPC@CFA.HARVARD.EDU
          URL http://cfa-www.harvard.edu/iau/mpc.html  ISSN 1523-6714

                                  2006 UZ215

Observations:
     K06UL5Z* C2006 10 29.38190 04 32 57.55 +36 20 16.1          18.1 V EU077703
     K06UL5Z  C2006 10 29.38741 04 32 39.80 +36 23 03.0          17.9 V EU077703
     K06UL5Z  C2006 10 29.39288 04 32 22.05 +36 25 47.4          17.6 V EU077703
     K06UL5Z  C2006 10 29.39826 04 32 04.92 +36 28 26.1          17.9 V EU077703
     K06UL5Z  C2006 10 29.44737 04 29 27.49 +36 52 19.9          19.2 V EU077703
     K06UL5Z  C2006 10 29.44807 04 29 25.27 +36 52 40.6          17.8 V EU077703
     K06UL5Z  C2006 10 30.40004 03 41 26.77 +43 19 20.6          18.8 V EU077G96
     K06UL5Z  C2006 10 30.40157 03 41 21.91 +43 19 49.9          18.7 V EU077G96
     K06UL5Z  C2006 10 30.40240 03 41 19.32 +43 20 05.7          19.1 V EU077G96
     K06UL5Z  C2006 10 30.40786 03 41 02.00 +43 21 49.8          19.0 V EU077G96
     K06UL5Z  C2006 10 30.40811 03 41 01.24 +43 21 54.5          18.8 V EU077G96
     K06UL5Z  C2006 10 30.40835 03 41 00.49 +43 21 59.5          18.8 V EU077G96
     K06UL5Z  C2006 10 30.40859 03 40 59.70 +43 22 03.8          18.8 V EU077G96
     K06UL5Z  C2006 10 30.41114 03 40 51.64 +43 22 52.1          18.5 V EU077G96
     K06UL5Z  C2006 10 30.41138 03 40 50.87 +43 22 56.7          19.1 V EU077G96
     K06UL5Z  C2006 10 30.41164 03 40 50.06 +43 23 02.0          18.9 V EU077G96
     K06UL5Z  C2006 10 30.41189 03 40 49.27 +43 23 06.3          18.5 V EU077G96
     K06UL5Z  C2006 10 30.44612 03 39 01.47 +43 33 45.2          18.7 V EU077G96
     K06UL5Z  C2006 10 30.44636 03 39 00.72 +43 33 49.5          18.7 V EU077G96
     K06UL5Z  C2006 10 30.44660 03 38 59.92 +43 33 54.2          18.6 V EU077G96
     K06UL5Z  C2006 10 30.52827 03 34 47.38 +43 57 59.1          18.7 V EU077G96
     K06UL5Z  C2006 10 30.52852 03 34 46.63 +43 58 03.1          19.6 V EU077G96
     K06UL5Z  C2006 10 30.52878 03 34 45.91 +43 58 07.8          18.8 V EU077G96
     K06UL5Z  C2006 10 30.52903 03 34 45.12 +43 58 11.8          18.8 V EU077G96
     K06UL5Z  C2006 10 30.52965 03 34 43.21 +43 58 22.8          18.4 V EU077G96
     K06UL5Z  C2006 10 30.52990 03 34 42.45 +43 58 26.9          19.0 V EU077G96
     K06UL5Z  C2006 10 30.53015 03 34 41.70 +43 58 31.0          18.8 V EU077G96
     K06UL5Z  C2006 10 30.53039 03 34 40.94 +43 58 35.3          19.2 V EU077G96

Observer details:
703 Catalina Sky Survey.  Observer E. J. Christensen.  Measurers E. C. Beshore,
    E. J. Christensen, G. J. Garradd, A. R. Gibbs, A. D. Grauer, R. E. Hill,
    R. A. Kowalski, S. M. Larson, R. H. McNaught.  0.68-m Schmidt + CCD.
G96 Mt. Lemmon Survey.  Observer E. J. Christensen.  Measurers E. C. Beshore,
    E. J. Christensen, G. J. Garradd, A. R. Gibbs, A. D. Grauer, R. E. Hill,
    R. A. Kowalski, S. M. Larson, R. H. McNaught.  1.5-m reflector + CCD.

Orbital elements:
2006 UZ215                                               Earth MOID = 0.0102 AU
Epoch 2006 Sept. 22.0 TT = JDT 2454000.5                MPC
M  77.26557              (2000.0)            P               Q
n   1.17143352     Peri.  222.51647     -0.22359207     +0.96426281
a   0.8912324      Node    35.26834     -0.81495657     -0.10495760
e   0.2064005      Incl.   14.25099     -0.53465164     -0.24327173
P   0.84           H   25.4           G   0.15           U   8
Residuals in seconds of arc
061029 703  1.7+  1.7-    061030 G96  0.2+  0.2-    061030 G96  0.3-  0.1+
061029 703  0.6+  0.3+    061030 G96  0.3+  0.2+    061030 G96  0.2-  0.1-
061029 703  1.9-  1.5+    061030 G96  0.1-  0.1-    061030 G96  0.5+  0.1+
061029 703  0.4-  0.3+    061030 G96  0.0   0.2-    061030 G96  0.2+  0.1-
061029 703  0.1-  0.4-    061030 G96  0.1-  0.2-    061030 G96  0.0   0.3+
061029 703  0.1+  0.2+    061030 G96  0.0   0.2+    061030 G96  0.0   0.1+
061030 G96  0.1-  0.1+    061030 G96  0.0   0.3-    061030 G96  0.1+  0.1-
061030 G96  0.2-  0.0     061030 G96  0.2+  0.0     061030 G96  0.3-  0.1+
061030 G96  0.2+  0.0     061030 G96  0.2+  0.1-
061030 G96  0.2-  0.2-    061030 G96  0.3-  0.2+

Ephemeris:
2006 UZ215               a,e,i = 0.89, 0.21, 14                  q = 0.7073
Date    TT    R. A. (2000) Decl.     Delta      r     Elong.  Phase     V
2006 10 22    08 10.85   -22 07.6    0.0359   0.990    80.1    97.9    21.7
2006 10 23    07 56.76   -18 22.4    0.0318   0.993    84.7    93.5    21.2
2006 10 24    07 39.53   -13 27.9    0.0280   0.995    90.5    87.9    20.7
2006 10 25    07 18.22   -07 00.6    0.0246   0.998    97.9    80.7    20.2
2006 10 26    06 51.68   +01 20.1    0.0219   1.001   107.1    71.7    19.6
2006 10 27    06 18.70   +11 31.9    0.0201   1.004   118.0    61.0    19.1
2006 10 28    05 38.57   +22 39.6    0.0196   1.006   129.3    49.9    18.7
2006 10 29    04 51.95   +32 57.8    0.0203   1.009   138.7    40.5    18.6
2006 10 30    04 01.71   +40 54.5    0.0223   1.011   144.3    35.0    18.6
2006 10 31    03 12.44   +46 06.3    0.0251   1.014   146.0    33.2    18.8
2006 11 01    02 28.23   +49 04.0    0.0286   1.016   145.2    33.9    19.1
2006 11 02    01 51.10   +50 32.6    0.0325   1.019   143.3    35.6    19.5
2006 11 03    01 21.02   +51 08.4    0.0368   1.021   141.1    37.6    19.8
2006 11 04    00 57.01   +51 14.8    0.0412   1.023   138.9    39.6    20.1
2006 11 05    00 37.86   +51 05.7    0.0458   1.025   136.9    41.3    20.4
2006 11 06    00 22.47   +50 48.9    0.0505   1.028   135.1    42.9    20.6
2006 11 07    00 10.00   +50 28.5    0.0553   1.030   133.4    44.4    20.9
2006 11 08    23 59.80   +50 06.9    0.0601   1.032   131.9    45.6    21.1
2006 11 09    23 51.37   +49 45.3    0.0650   1.034   130.5    46.8    21.3
2006 11 10    23 44.35   +49 24.3    0.0699   1.036   129.2    47.8    21.5
2006 11 11    23 38.46   +49 04.3    0.0749   1.038   128.0    48.7    21.7

Timothy B. Spahr             (C) Copyright 2006 MPC           M.P.E.C. 2006-U77

Read MPEC 2006-U76 Read MPEC 2006-U78


Our Web policy. Index to the CBAT/MPC/ICQ pages.


Valid HTML 4.01!